OSCAR 11 (UoSAT 2)

Satellite information

Favourite Embed

Satellite Type and Status

PAYLOADIN ORBIT

Key statistics

Satellite OSCAR 11 (UoSAT 2) at a glance.

Uptime

15103

Days in orbit

Revolutions

≈ 14.9

Per day

Orbit

SSO

Sun Synchronous Orbit

Inclination

97.8

Latest

Satellite identification and parameters

Extended collection of information and parameters for OSCAR 11 (UoSAT 2).

Object identification

Identified? True

Debris? False

Object name: OSCAR 11 (UoSAT 2)

International designator: 1984-021B

Object number (NORAD): 14781

Object ID (CCSDS): 14781

Country: UNITED KINGDOM (UK)

Current information (Y/N): Y

RCS size: MEDIUM

Orbital parameters

Period: 96.68 minutes

Inclination: 97.7556 deg

SMA: 6977.792 km

Apoapsis: 604.107 km

Periapsis: 595.206 km

RAAN: 153.3133 deg

Eccentricy: 0.0006378

Argument of periapsis: 242.9276 deg

Mean anomaly: 117.1291 deg

Mean motion: 14.89449409 rev/day

Mean motion (dot): 0.0000098 rev/day2

B* drag term: 0.00010877 1/REarth

Two-line elements (TLE)

Creation date: July 6, 2025, 6:05 p.m.

Reference frame: TEME

Reference center: EARTH

Epoch: July 6, 2025, 11:22 a.m. UTC

TLE line 0: 0 OSCAR 11 (UoSAT 2)

TLE line 1: 1 14781U 84021B 25187.47369704 .00000980 00000-0 10877-3 0 9992

TLE line 2: 2 14781 97.7556 153.3133 0006378 242.9276 117.1291 14.89449409205648

Live tracking on map

Real-time ground track for satellite OSCAR 11 (UoSAT 2).

In-orbit conjunctions

There are no conjunctions computed for OSCAR 11 (UoSAT 2), at the moment. Check back to stay up to date, as we update our databases every day.

Go to all conjunctions

Associated space launch

Earth resources monitoring satellite

OSCAR 11 (UoSAT 2) was lifted into orbit during the mission ‘Delta 3920 | Landsat 5’, on board a Delta 3920 space rocket.

The launch took place on March 1, 1984, 5:59 p.m. from Space Launch Complex 2W.

For more information about the launch, click the button.

Launch to space Delta 3920 | Landsat 5
Delta 3920 | Landsat 5

Agency: N/A

Status: Launch Successful

Launch date: March 1, 1984, 5:59 p.m. UTC

Rocket: Delta 3920

Launch pad: Space Launch Complex 2W

Location: Vandenberg SFB, CA, USA

...

Latest news about this satellite

There are no fresh news available about this satellite. Check back as we update our databases every day.


Newsletter sign-up

Weekly statistics, charts and insights to help you stay on top of the space industry.